Погода Оловянная

Погода Оловянная : погода сейчас, прогноз погоды и архив. Всё, что Вы хотите узнать о погоде Оловянная!

Хотите узнать прогноз погоды Оловянная? Тогда Вам сюда: Погода Оловянная

Поиск расширенной информации на нашем сайте:

Другие новости

Новости СМИ2

Главная страница сайта

Новости сайта

03.07.2017

Напоминаем, что на нашем специализированном сайте Метеоцентр.Азия вы можете получить высокодетализированные автоматические прогнозы погоды по пунктам России, СНГ и мира в авиационном формате (включающие направление и скорость ветра, видимость, явления погоды, количество и форму облачности, нижнюю и верхнюю границу облачности).

Рекомендуем: Общение на форуме

Погода Оловянная - сегодня

Время (UTC), дата Ветер
(°,м/с) 
Видим.   Явления Облачность Т
(°С)
Тd
(°С)
f(%) Тe
(°С)
Pmin
(гПа)
dP
(гПа)
Po
(мм)
O2
(г/м3)
Тmin Tmax R s Состояние
почвы
15 14.04.18 110 (В) 20000 м    ясно 
-0.8 -15.1 33 1019.7  0.2  706  286           
18 14.04.18 340 (С) 20000 м    ясно 
-2.9 -15.8 36 -2  1019.5  -0.7  706  289           
21 14.04.18 150 (ЮВ) 20000 м    ясно 
-5.9 -13.6 54 -10  1018.9  -1.5  704  291           
15 15.04.18 160 (Ю) 6{11}  н/о    н/о 
+4.9 -8.8 36 +2  1005.1  -0.3  697  277           
18 15.04.18 160 (Ю) 7{10}  н/о    н/о 
+3.9 -8.9 39 +1  1003.3  -1.9  696  277           
21 15.04.18 150 (ЮВ) 20000 м    ясно 
+3 -9.2 40 +2  1003.1  -0.5  695  278           
03 16.04.18 310 (СЗ) 20000 м    10/10 2000 м 
[As trans]
+9.4 -6.7 31 +9  1002.7  0.2  696  272           
06 16.04.18 340 (С) 6{11}  20000 м    8/0 верхняя 
[Cs]
+14.5 -5.8 24 +14  1001  -0.4  696  267           
09 16.04.18 320 (СЗ) 6{12}  20000 м    6/3 2000 м средняя, верхняя 
[Ac lent|Ci fib]
+14.6 -10.8 16 +14  1000.7  -0.3  696  267           
15 16.04.18 010 (С) 5{10}  20000 м    ясно 
+6.9 -12 25 +5  1006.7  1.8  699  275           
18 16.04.18 360 (С) 20000 м    ясно 
+3.9 -12.4 29 +2  1008.8  1.1  699  279           
03 17.04.18 030 (СВ) 20000 м    ясно 
+9.2 -12.3 20 +9  1011.9  0.4  703  275           
06 17.04.18 330 (СЗ) 20000 м    3/0 верхняя 
[Ci fib]
+12.4 -13.7 15 +13  1009.1  -1.8  701  271           
09 17.04.18 230 (ЮЗ) 20000 м    8/0 верхняя 
[Cs]
+13.3 -13.8 14 +15  1006.9  -1.8  700  270           
15 17.04.18 160 (Ю) 20000 м    10/10 2000 м 
[Ns]
+8 -11.2 24 +7  1007.1  -1.1  699  275           
18 17.04.18 160 (Ю) 20000 м    10/10 2000 м 
[As trans]
+7 -9.9 29 +6  1005.8  -1.4  698  275           
21 17.04.18 160 (Ю) 20000 м    10/10 2000 м 
[Ns]
+7.2 -9.6 29 +5  1005.8  698  275           
03 18.04.18 150 (ЮВ) 20000 м  {дождь}  10/10 2000 м 
[Ns]
+7.3 +5.1 86 +6  1007.2  0.6  699  273           
06 18.04.18 130 (ЮВ) 20000 м    6/6 1000 м 
[Cu hum]
+11.5 +2.4 54 +10  1005.1  -1  698  270           
12 18.04.18 150 (ЮВ) 20000 м    ясно 
+12.7 +2 48 +11  1003.9  -0.6  698  268    +13.1  0.0     
15 18.04.18 130 (ЮВ) 20000 м    ясно 
+6.6 +1.2 68 +5  1002.3  21.9  700  275           
18 18.04.18 030 (СВ) 20000 м    ясно 
+4.3 +1.1 80 +2  1012  21.9  702  278           
21 18.04.18 310 (СЗ) 20000 м    8/8 1000 м средняя 
[Ac und]
+4.5 -3.2 57 +4  1012.7  21.4  703  279           
03 19.04.18 350 (С) 20000 м    10/10 2000 м 
[As trans]
+8.1 -10.4 26 +7  1013.8  0.7  704  276           
06 19.04.18 020 (С) 6{10}  20000 м    10/10 2000 м 
[As trans]
+6.5 -4 47 +4  1009.9  -4  701  276           
Время (UTC), дата Ветер
(°,м/с) 
Видим.   Явления Облачность Т
(°С)
Тd
(°С)
f(%) Тe
(°С)
Pmin
(гПа)
dP
(гПа)
Po
(мм)
O2
(г/м3)
Тmin Tmax R s Состояние
почвы

Для получения пояснительной информации подведите курсор к названию столбца.

ПОГОДА Оловянная - архив

Всё, что Вы хотите узнать о погоде Оловянная - удобно и подробно!

Выберите нужную дату (начиная с 1 января 2015* года) и нажмите кнопку "Найти".
Будут отображены архивные сводки погоды по пункту Оловянная, начиная с указанной даты.


Отображать данные в формате CSV (для использования в таблицах Excel)


Внимание! Наш архив погоды предназначен исключительно для личного некоммерческого использования в познавательных целях. Если Вам необходимы официальные справки о состоянии погоды (для производственных, юридических, коммерческих и т.п. целей), обращайтесь в органы Росгидромета.

*Примечание: данная дата относится к архиву по метеостанциям СССР (Россия, СНГ, Балтия).
Архив по метеостанциям Зарубежной Европы и Азии (кроме Китая) хранится 10 дней, по другим регионам земного шара (Китай, Африка, Америка, Австралия, Океания) - 1 день.

Оловянная - район местоположения метеостанции


Название, широта, долгота, высота метеостанции:
Оловянная 50.9°ш. 115.6°д. 640 м над ур. моря [Российская Федерация]

Дополнительная информация

В oтличие oт бoльшинства пoгoдных сайтoв мы публикуем пoдрoбную метеoинфoрмацию в детальнoм прoфессиoнальнoм фoрмате.

Характеристики температуры и влажнoсти вoздуха измеряются на высoте 2 м в тени вдали oт зданий и деревьев.
Скoрoсть ветра измеряется на высoте 10 м (на урoвне рoста челoвека скoрoсть ветра ниже в 1.5-2 раза). Если метеoстанция нахoдится в гoрoде или в лесу, тo скoрoсть ветра занижена на 2-4 м/с пo сравнению с oткрытым местoм. Скoрoсть ветра над акватoриями крупных рек и oзёр, а также на вершинах хoлмoв на 2-5 м/с выше, чем в oбычных услoвиях.
Атмoсфернoе давление в разных тoчках местнoсти мoжет значительнo oтличаться oт давления на метеoстанции, в зависимoсти oт услoвий рельефа (при пoдъёме на 10 м давление пoнижается примернo на 1 мм рт.ст.).